When you browse on this site, cookies collect data to enhance your experience and personalize the content and advertising you see.
Visit our Privacy Policy to learn more. By continuing to use the site, you agree to this use of cookies and data.
  • In United Kingdom
  • List of Countries
  • For 7 days
  • Water Temperature
  • Satellite Maps
  • Weather Map
  • Weather Widgets
  • user-avatar
    Login

    Hourly Weather Miami Beach

    Today, 25 June, Tuesday

    Time Temperature Precipitation Wind Pressure Humidity
    00:00 +31°C° 0 mm 2 mps 762 mmHg 53%
    01:00 +31°C° 0 mm 2 mps 762 mmHg 53%
    02:00 +31°C° 0 mm 2 mps 762 mmHg 54%
    03:00 +31°C° 0 mm 2 mps 761 mmHg 55%
    04:00 +31°C° 0 mm 2 mps 761 mmHg 56%
    05:00 +31°C° 0 mm 2 mps 761 mmHg 57%
    06:00 +31°C° 0 mm 2 mps 762 mmHg 57%
    07:00 +31°C° 0 mm 2 mps 762 mmHg 58%
    08:00 +32°C° 0 mm 2 mps 762 mmHg 55%
    09:00 +33°C° 0 mm 1 mps 763 mmHg 51%
    10:00 +34°C° 0 mm 1 mps 763 mmHg 48%
    11:00 +36°C° 0 mm 2 mps 763 mmHg 46%
    12:00 +36°C° 0 mm 2 mps 763 mmHg 43%
    13:00 +37°C° 0 mm 3 mps 763 mmHg 41%
    14:00 +37°C° 0 mm 3 mps 762 mmHg 42%
    15:00 +37°C° 0 mm 4 mps 762 mmHg 44%
    16:00 +36°C° 0 mm 5 mps 761 mmHg 46%
    17:00 +36°C° 0 mm 4 mps 762 mmHg 48%
    18:00 +35°C° 0 mm 3 mps 762 mmHg 51%
    19:00 +34°C° 0 mm 2 mps 762 mmHg 54%
    20:00 +34°C° 0 mm 3 mps 762 mmHg 55%
    21:00 +34°C° 0 mm 3 mps 762 mmHg 57%
    22:00 +33°C° 0 mm 3 mps 763 mmHg 59%
    23:00 +33°C° 0 mm 3 mps 763 mmHg 59%

    Tomorrow, 26 June, Wednesday

    Time Temperature Precipitation Wind Pressure Humidity
    00:00 +33°C° 0 mm 3 mps 763 mmHg 60%
    01:00 +33°C° 0 mm 3 mps 762 mmHg 61%
    02:00 +33°C° 0 mm 3 mps 762 mmHg 61%
    03:00 +31°C° 0 mm 2 mps 762 mmHg 61%
    04:00 +31°C° 0 mm 2 mps 762 mmHg 61%
    05:00 +31°C° 0 mm 2 mps 762 mmHg 61%
    06:00 +31°C° 0 mm 2 mps 763 mmHg 60%
    07:00 +32°C° 0 mm 1 mps 763 mmHg 59%
    08:00 +32°C° 0 mm 1 mps 763 mmHg 56%
    09:00 +33°C° 0 mm 1 mps 763 mmHg 52%
    10:00 +34°C° 0 mm 1 mps 763 mmHg 48%
    11:00 +36°C° 0 mm 2 mps 763 mmHg 47%
    12:00 +36°C° 0 mm 2 mps 763 mmHg 46%
    13:00 +37°C° 0 mm 3 mps 763 mmHg 45%
    14:00 +37°C° 0.1 mm 4 mps 762 mmHg 46%
    15:00 +36°C° 0.1 mm 4 mps 762 mmHg 48%
    16:00 +36°C° 0.1 mm 5 mps 761 mmHg 50%
    17:00 +34°C° 1.4 mm 5 mps 762 mmHg 55%
    18:00 +33°C° 1.4 mm 4 mps 762 mmHg 60%
    19:00 +32°C° 1.4 mm 4 mps 763 mmHg 65%
    20:00 +31°C° 0.1 mm 3 mps 763 mmHg 61%
    21:00 +31°C° 0.1 mm 2 mps 763 mmHg 58%
    22:00 +31°C° 0.1 mm 1 mps 763 mmHg 55%
    23:00 +31°C° 0 mm 1 mps 763 mmHg 58%

    Day after tomorrow, 27 June, Thursday

    Time Temperature Precipitation Wind Pressure Humidity
    00:00 +31°C° 0 mm 2 mps 762 mmHg 61%
    01:00 +31°C° 0 mm 2 mps 762 mmHg 64%
    02:00 +31°C° 0 mm 2 mps 762 mmHg 65%
    03:00 +31°C° 0 mm 2 mps 762 mmHg 66%
    04:00 +30°C° 0 mm 2 mps 761 mmHg 67%
    05:00 +31°C° 0 mm 2 mps 762 mmHg 66%
    06:00 +31°C° 0 mm 2 mps 762 mmHg 65%
    07:00 +31°C° 0 mm 3 mps 762 mmHg 64%
    08:00 +33°C° 0 mm 3 mps 762 mmHg 61%
    09:00 +33°C° 0 mm 3 mps 763 mmHg 57%
    10:00 +34°C° 0 mm 3 mps 763 mmHg 53%
    11:00 +35°C° 0 mm 3 mps 763 mmHg 52%
    12:00 +35°C° 0 mm 3 mps 763 mmHg 51%
    13:00 +35°C° 0 mm 4 mps 763 mmHg 50%
    14:00 +35°C° 0.1 mm 4 mps 762 mmHg 51%
    15:00 +35°C° 0.1 mm 4 mps 762 mmHg 53%
    16:00 +35°C° 0.1 mm 4 mps 762 mmHg 54%
    17:00 +34°C° 0.1 mm 4 mps 762 mmHg 56%
    18:00 +33°C° 0.1 mm 4 mps 762 mmHg 58%
    19:00 +33°C° 0.1 mm 4 mps 762 mmHg 60%
    20:00 +33°C° 0.2 mm 4 mps 763 mmHg 62%
    21:00 +32°C° 0.2 mm 4 mps 763 mmHg 63%
    22:00 +32°C° 0.2 mm 5 mps 763 mmHg 65%
    23:00 +32°C° 0.4 mm 5 mps 763 mmHg 66%

    28 June, Friday

    Time Temperature Precipitation Wind Pressure Humidity
    00:00 +32°C° 0.4 mm 5 mps 763 mmHg 67%
    01:00 +32°C° 0.4 mm 5 mps 762 mmHg 67%
    02:00 +32°C° 0.6 mm 5 mps 762 mmHg 67%
    03:00 +30°C° 0.6 mm 5 mps 762 mmHg 67%
    04:00 +30°C° 0.6 mm 5 mps 762 mmHg 66%
    05:00 +32°C° 0.6 mm 5 mps 762 mmHg 66%
    06:00 +32°C° 0.6 mm 4 mps 762 mmHg 65%
    07:00 +32°C° 0.6 mm 4 mps 763 mmHg 65%
    08:00 +32°C° 0.6 mm 5 mps 763 mmHg 64%
    09:00 +33°C° 0.6 mm 5 mps 763 mmHg 63%
    10:00 +33°C° 0.6 mm 5 mps 764 mmHg 62%
    11:00 +33°C° 0.5 mm 5 mps 764 mmHg 60%
    12:00 +34°C° 0.5 mm 5 mps 764 mmHg 59%
    13:00 +34°C° 0.5 mm 5 mps 764 mmHg 57%
    14:00 +34°C° 0.1 mm 5 mps 763 mmHg 58%
    15:00 +34°C° 0.1 mm 5 mps 763 mmHg 58%
    16:00 +34°C° 0.1 mm 5 mps 763 mmHg 58%
    17:00 +34°C° 0.1 mm 5 mps 763 mmHg 61%
    18:00 +33°C° 0.1 mm 6 mps 763 mmHg 64%
    19:00 +32°C° 0.1 mm 6 mps 763 mmHg 67%
    20:00 +32°C° 0.2 mm 6 mps 763 mmHg 68%
    21:00 +32°C° 0.2 mm 6 mps 763 mmHg 69%
    22:00 +32°C° 0.2 mm 6 mps 764 mmHg 70%
    23:00 +32°C° 0.3 mm 6 mps 763 mmHg 71%

    29 June, Saturday

    Time Temperature Precipitation Wind Pressure Humidity
    00:00 +32°C° 0.3 mm 6 mps 763 mmHg 72%
    01:00 +32°C° 0.3 mm 6 mps 762 mmHg 73%
    02:00 +32°C° 0.2 mm 6 mps 762 mmHg 73%
    03:00 +32°C° 0.2 mm 5 mps 762 mmHg 74%
    04:00 +30°C° 0.2 mm 5 mps 762 mmHg 74%
    05:00 +32°C° 0.3 mm 5 mps 763 mmHg 73%
    06:00 +32°C° 0.3 mm 5 mps 763 mmHg 72%
    07:00 +32°C° 0.3 mm 5 mps 763 mmHg 72%
    08:00 +32°C° 0.4 mm 5 mps 763 mmHg 68%
    09:00 +32°C° 0.4 mm 6 mps 764 mmHg 65%
    10:00 +32°C° 0.4 mm 7 mps 764 mmHg 62%
    11:00 +32°C° 0 mm 6 mps 764 mmHg 62%
    12:00 +32°C° 0 mm 5 mps 765 mmHg 62%
    13:00 +32°C° 0 mm 4 mps 765 mmHg 63%
    14:00 +32°C° 0.1 mm 5 mps 764 mmHg 62%
    15:00 +32°C° 0.1 mm 6 mps 764 mmHg 62%
    16:00 +32°C° 0.1 mm 7 mps 764 mmHg 61%
    17:00 +32°C° 0 mm 7 mps 764 mmHg 63%
    18:00 +32°C° 0 mm 7 mps 763 mmHg 64%
    19:00 +30°C° 0 mm 7 mps 763 mmHg 66%
    20:00 +30°C° 0 mm 7 mps 763 mmHg 67%
    21:00 +30°C° 0 mm 7 mps 764 mmHg 68%
    22:00 +32°C° 0 mm 7 mps 764 mmHg 69%
    23:00 +30°C° 0 mm 6 mps 763 mmHg 69%

    30 June, Sunday

    Time Temperature Precipitation Wind Pressure Humidity
    00:00 +30°C° 0 mm 6 mps 763 mmHg 69%
    01:00 +30°C° 0 mm 6 mps 763 mmHg 70%
    02:00 +30°C° 0.1 mm 5 mps 763 mmHg 70%
    03:00 +30°C° 0.1 mm 5 mps 762 mmHg 71%
    04:00 +30°C° 0.1 mm 4 mps 762 mmHg 71%
    05:00 +30°C° 0.6 mm 4 mps 763 mmHg 71%
    06:00 +30°C° 0.6 mm 4 mps 763 mmHg 71%
    07:00 +30°C° 0.6 mm 4 mps 763 mmHg 71%
    08:00 +32°C° 0.6 mm 4 mps 763 mmHg 67%
    09:00 +33°C° 0.6 mm 4 mps 763 mmHg 62%
    10:00 +34°C° 0.6 mm 4 mps 764 mmHg 58%
    11:00 +34°C° 0.2 mm 4 mps 763 mmHg 56%
    12:00 +34°C° 0.2 mm 4 mps 763 mmHg 53%
    13:00 +35°C° 0.2 mm 3 mps 763 mmHg 51%
    14:00 +35°C° 0 mm 4 mps 762 mmHg 51%
    15:00 +35°C° 0 mm 4 mps 762 mmHg 52%
    16:00 +34°C° 0 mm 4 mps 762 mmHg 53%
    17:00 +34°C° 0 mm 4 mps 762 mmHg 55%
    18:00 +34°C° 0 mm 3 mps 762 mmHg 57%
    19:00 +33°C° 0 mm 3 mps 762 mmHg 60%
    20:00 +33°C° 0 mm 3 mps 762 mmHg 61%
    21:00 +33°C° 0 mm 3 mps 762 mmHg 63%
    22:00 +31°C° 0 mm 2 mps 763 mmHg 65%
    23:00 +31°C° 0 mm 2 mps 762 mmHg 65%
    Show more